Location: Cluny
(50.9333°N, 112.8167°W)
Time: 18:44:52
(UTC-06:00)

Hamsat - Visible Passes

Search period start: 22 October 2017 00:00
Search period end: 01 November 2017 00:00
Orbit: 584 x 619 km, 97.7° (Epoch: 22 October)

Date Brightness Start Highest point End Pass type
(mag) Time Alt. Az. Time Alt. Az. Time Alt. Az.
22 Oct ? 05:28:46 10° NNE 05:32:56 65° ESE 05:33:38 55° SSE visible
22 Oct ? 07:05:32 10° NNW 07:08:17 17° WNW 07:10:24 12° W visible
23 Oct ? 04:07:19 10° ENE 04:08:08 10° E 04:08:26 10° E visible
23 Oct ? 05:40:22 10° NNE 05:44:34 85° ESE 05:45:12 64° S visible
23 Oct ? 07:17:35 10° NNW 07:19:46 14° WNW 07:21:57 10° W visible
24 Oct ? 04:17:44 10° ENE 04:19:54 14° E 04:20:00 14° E visible
24 Oct ? 05:52:00 10° N 05:56:11 74° WNW 05:56:46 62° SW visible
24 Oct ? 07:29:56 10° NW 07:31:14 11° NW 07:32:32 10° WNW visible
25 Oct ? 04:28:49 10° NE 04:31:34 18° E 04:31:34 18° E visible
25 Oct ? 06:03:40 10° N 06:07:48 57° WNW 06:08:20 52° WSW visible
26 Oct ? 04:40:04 10° NE 04:43:07 22° E 04:43:07 22° E visible
26 Oct ? 06:15:22 10° N 06:19:22 44° WNW 06:19:54 42° W visible
27 Oct ? 04:51:27 10° NE 04:54:42 28° E 04:54:42 28° E visible
27 Oct ? 06:27:07 10° N 06:30:56 35° WNW 06:31:28 33° W visible
28 Oct ? 05:02:53 10° NNE 05:06:15 35° ENE 05:06:15 35° ENE visible
28 Oct ? 06:38:53 10° N 06:42:28 28° WNW 06:43:01 27° WNW visible
29 Oct ? 05:14:24 10° NNE 05:17:49 43° ENE 05:17:49 43° ENE visible
29 Oct ? 06:50:43 10° N 06:54:00 22° WNW 06:54:35 22° WNW visible
30 Oct ? 05:25:56 10° NNE 05:29:23 52° NE 05:29:23 52° NE visible
30 Oct ? 07:02:37 10° NNW 07:05:30 18° WNW 07:06:09 18° WNW visible
31 Oct ? 05:37:31 10° NNE 05:40:56 57° NNE 05:40:56 57° NNE visible
31 Oct ? 07:14:37 10° NNW 07:16:59 15° WNW 07:17:43 14° WNW visible
